Flag for Germany Weather past 2 weeks in Görlitz, Saxony, Germany

Now
48 °F

Clear.


Feels Like: 48 °F
Forecast: 47 / 70 °F
Wind: 1 mph from East

Location: Goerlitz


UV Index: 3 (Moderate)

Visibility: 8 mi


Pressure: 30.14 "Hg

Humidity: 94%

Dew point: 47 °F

Location of GörlitzLocation

Historic Weather in Görlitz

°F

Görlitz temperature yesterday

Maximum temperature yesterday: 67 °F (at 2:00 PM)
Minimum temperature yesterday: 46 °F (at 4:00 AM)
Average temperature yesterday: 57 °F

Past Weeks' High & Low Weather Summary

 TemperatureHumidityPressure
High67 °F (Apr 23, 2:00 PM)99% (Apr 11, 6:00 AM)30.44 "Hg (Apr 11, 6:00 AM)
Low29 °F (Apr 17, 6:00 AM)34% (Apr 17, 3:00 PM)29.73 "Hg (Apr 21, 6:00 PM)
Average48 °F76%30.02 "Hg
* Reported Apr 9 2:00 AM — Midnight between Apr 23 and Apr 24, Görlitz, Weather by CustomWeather, © 2014

Note: Actual official high and low records may vary slightly from our data, if they occured in-between our weather recording intervals... More about our weather records

Advertising

Historic Weather Conditions — Data for Previous 24 hours

 ConditionsComfort  
Time TempWeatherWind HumidityBarometerVisibility
12:00 AM
Apr 24
51 °FClear.1 mph94%30.13 "Hg8 mi
11:00 PM
Apr 23
53 °FPassing clouds.1 mph91%30.13 "Hg8 mi
10:00 PM54 °FPassing clouds.1 mph87%30.13 "Hg8 mi
9:00 PM59 °FOvercast.2 mph75%30.11 "Hg12 mi
8:00 PM63 °FPartly sunny.2 mph67%30.08 "Hg19 mi
7:00 PM64 °FOvercast.5 mph66%30.07 "Hg19 mi
6:00 PM67 °FPartly sunny.2 mph54%30.06 "Hg17 mi
5:00 PM67 °FPartly sunny.3 mph54%30.07 "Hg19 mi
4:00 PM66 °FPartly sunny.3 mph57%30.07 "Hg19 mi
3:00 PM67 °FPartly sunny.3 mph60%30.08 "Hg17 mi
2:00 PM67 °FPartly sunny.3 mph51%30.09 "Hg17 mi
1:00 PM66 °FPartly sunny.3 mph58%30.09 "Hg17 mi
12:00 PM64 °FScattered clouds.2 mph62%30.10 "Hg16 mi
11:00 AM63 °FScattered clouds.2 mph69%30.10 "Hg14 mi
10:00 AM59 °FSunny.1 mph75%30.10 "Hg11 mi
9:00 AM53 °FScattered clouds.1 mph97%30.10 "Hg9 mi
8:00 AM47 °FScattered clouds.1 mph98%30.10 "Hg9 mi
7:00 AM47 °FFog.1 mph98%30.09 "Hg12 mi
6:00 AM47 °FFog.2 mph98%30.06 "Hg8 mi
5:00 AM47 °FFog.2 mph98%30.05 "Hg6 mi
4:00 AM46 °FFog.2 mph97%30.05 "Hg7 mi
3:00 AM50 °FFog.2 mph97%30.03 "Hg9 mi
2:00 AM49 °FFog.2 mph97%30.03 "Hg7 mi
1:00 AM50 °FOvercast.2 mph97%30.02 "Hg12 mi
Weather by CustomWeather, © 2014

See weather overview